Location: Vale
(35.4830°N, 81.3830°W)
Time: 21:26:14
(UTC-04:00)

Cosmos 2237 Rocket - Visible Passes

Search period start: 29 May 2017 00:00
Search period end: 08 June 2017 00:00
Orbit: 835 x 849 km, 71.0° (Epoch: 29 May)

Date Brightness Start Highest point End Pass type
(mag) Time Alt. Az. Time Alt. Az. Time Alt. Az.
29 May 2.2 02:49:22 10° NNW 02:55:00 71° ENE 02:55:15 70° E visible
29 May 4.1 04:36:03 10° WNW 04:37:00 12° W 04:37:00 12° W visible
30 May 2.4 02:34:32 10° NNW 02:40:03 67° ENE 02:40:03 67° ENE visible
30 May 4.2 04:20:55 10° WNW 04:21:49 12° WNW 04:21:49 12° WNW visible
31 May 2.5 02:19:42 10° NNW 02:24:57 62° NE 02:24:57 62° NE visible
31 May 4.2 04:05:50 10° WNW 04:06:43 12° WNW 04:06:43 12° WNW visible
01 Jun 2.6 02:04:53 10° NNW 02:09:55 57° NE 02:09:55 57° NE visible
01 Jun 4.2 03:50:48 10° WNW 03:51:42 12° WNW 03:51:42 12° WNW visible
02 Jun 2.7 01:50:03 10° NNW 01:54:58 54° NE 01:54:58 54° NE visible
02 Jun 4.3 03:35:46 10° WNW 03:36:46 13° WNW 03:36:46 13° WNW visible
03 Jun 2.8 01:35:14 10° NNW 01:40:04 51° NE 01:40:04 51° NE visible
03 Jun 4.3 03:20:45 10° WNW 03:21:52 13° WNW 03:21:52 13° WNW visible
04 Jun 2.9 01:20:24 10° N 01:25:13 48° NE 01:25:13 48° NE visible
04 Jun 4.3 03:05:45 10° WNW 03:07:01 14° WNW 03:07:01 14° WNW visible
05 Jun 2.9 01:05:35 10° N 01:10:24 46° NE 01:10:24 46° NE visible
05 Jun 4.2 02:50:46 10° NW 02:52:13 15° WNW 02:52:13 15° WNW visible
06 Jun 3.0 00:50:46 10° N 00:55:38 45° NE 00:55:38 45° NE visible
06 Jun 4.2 02:35:48 10° NW 02:37:27 16° WNW 02:37:27 16° WNW visible
07 Jun 3.0 00:35:58 10° N 00:40:54 43° NE 00:40:54 43° NE visible
07 Jun 4.2 02:20:50 10° NW 02:22:43 17° WNW 02:22:43 17° WNW visible
